Location: ?
(35.3436°N, 139.3168°E)
Time: 08:53:39
(UTC+00:00)

X-37B - Pass Details

Date: 10 May 2021
Orbit: 386 x 389 km, 45.0° (Epoch: 10 June)

Event Time Altitude Azimuth Distance (km) Brightness Sun altitude
Rises 11:42:06 0° 307° (NW) 2,272 5.9 -22.3°
Reaches altitude 10° 11:44:28 10° 323° (NW) 1,415 4.5 -22.7°
Enters shadow 11:46:55 22° 13° (NNE) 895 2.7 -23.0°
